Location: Bletchingley
(51.2333°N, 0.1000°W)
Time: 00:58:53
(UTC+00:00)

MOS 1 - Visible Passes

Search period start: 24 January 2021 00:00
Search period end: 03 February 2021 00:00
Orbit: 879 x 891 km, 99.1° (Epoch: 23 January)

Date Brightness Start Highest point End Pass type
(mag) Time Alt. Az. Time Alt. Az. Time Alt. Az.
24 Jan 4.8 18:59:19 38° NE 18:59:19 38° NE 19:04:07 10° N visible
24 Jan 5.7 20:42:02 33° NW 20:42:02 33° NW 20:45:38 10° NNW visible
25 Jan 4.8 18:57:19 38° NE 18:57:19 38° NE 19:02:16 10° N visible
25 Jan 5.6 20:40:02 35° WNW 20:40:02 35° WNW 20:43:49 10° NNW visible
26 Jan 4.8 18:55:18 37° ENE 18:55:18 37° ENE 19:00:25 10° N visible
26 Jan 5.5 20:38:01 38° WNW 20:38:01 38° WNW 20:42:01 10° NNW visible
27 Jan 4.8 18:53:17 36° ENE 18:53:25 36° ENE 18:58:34 10° N visible
27 Jan 5.4 20:36:00 40° WNW 20:36:00 40° WNW 20:40:12 10° NNW visible
28 Jan 4.8 18:51:16 35° ENE 18:51:37 35° ENE 18:56:43 10° N visible
28 Jan 5.3 20:33:59 43° WNW 20:33:59 43° WNW 20:38:23 10° NNW visible
29 Jan 4.9 18:49:15 33° ENE 18:49:48 34° ENE 18:54:52 10° N visible
29 Jan 5.2 20:31:58 45° WNW 20:31:58 45° WNW 20:36:33 10° NNW visible
30 Jan 4.9 18:47:14 32° ENE 18:47:59 33° ENE 18:53:01 10° N visible
30 Jan 5.1 20:29:57 48° WNW 20:29:57 48° WNW 20:34:45 10° NNW visible
31 Jan 5.0 18:45:13 30° ENE 18:46:10 32° ENE 18:51:09 10° N visible
31 Jan 5.0 20:27:56 51° WNW 20:27:56 51° WNW 20:32:54 10° NNW visible
01 Feb 5.0 18:43:12 29° E 18:44:21 31° ENE 18:49:19 10° N visible
01 Feb 4.9 20:25:54 54° W 20:25:54 54° W 20:31:06 10° NNW visible
02 Feb 5.1 18:41:10 27° E 18:42:32 30° ENE 18:47:27 10° N visible
02 Feb 4.8 20:23:53 57° W 20:23:53 57° W 20:29:16 10° NNW visible
